• în România
  • Lista ţărilor
  • Pe 7 zile
  • Temperatura apei
  • Hartă satelitară
  • Meteo pe hartă
  • Widget-uri
  • user-avatar
    Intrare

    Meteo pe oră la Birao

    Astăzi, 21 Octombrie, Sâmbătă

    Timp Temperatura Precipitaţii Vânt Presiune Umiditate
    00:00 +27°C° 0 mm 1 m/s 718 mmHg 28%
    01:00 +26°C° 0 mm 1 m/s 718 mmHg 29%
    02:00 +25°C° 0 mm 1 m/s 718 mmHg 30%
    03:00 +25°C° 0 mm 1 m/s 717 mmHg 31%
    04:00 +24°C° 0 mm 1 m/s 717 mmHg 32%
    05:00 +24°C° 0 mm 1 m/s 717 mmHg 34%
    06:00 +25°C° 0 mm 1 m/s 718 mmHg 33%
    07:00 +27°C° 0 mm 1 m/s 718 mmHg 33%
    08:00 +28°C° 0 mm 1 m/s 719 mmHg 32%
    09:00 +31°C° 0 mm 2 m/s 719 mmHg 27%
    10:00 +35°C° 0 mm 2 m/s 719 mmHg 21%
    11:00 +38°C° 0 mm 3 m/s 720 mmHg 15%
    12:00 +39°C° 0 mm 3 m/s 719 mmHg 14%
    13:00 +40°C° 0 mm 3 m/s 718 mmHg 13%
    14:00 +42°C° 0 mm 3 m/s 717 mmHg 12%
    15:00 +40°C° 0 mm 2 m/s 717 mmHg 13%
    16:00 +40°C° 0 mm 2 m/s 716 mmHg 14%
    17:00 +39°C° 0 mm 2 m/s 716 mmHg 16%
    18:00 +36°C° 0 mm 2 m/s 716 mmHg 18%
    19:00 +32°C° 0 mm 2 m/s 716 mmHg 19%
    20:00 +30°C° 0 mm 1 m/s 716 mmHg 21%
    21:00 +29°C° 0 mm 1 m/s 716 mmHg 21%
    22:00 +28°C° 0 mm 1 m/s 717 mmHg 22%
    23:00 +28°C° 0 mm 1 m/s 717 mmHg 23%

    Mâine, 22 Octombrie, Duminică

    Timp Temperatura Precipitaţii Vânt Presiune Umiditate
    00:00 +27°C° 0 mm 1 m/s 717 mmHg 24%
    01:00 +27°C° 0 mm 1 m/s 717 mmHg 25%
    02:00 +26°C° 0 mm 1 m/s 716 mmHg 26%
    03:00 +26°C° 0 mm 1 m/s 716 mmHg 27%
    04:00 +25°C° 0 mm 1 m/s 716 mmHg 28%
    05:00 +25°C° 0 mm 1 m/s 716 mmHg 30%
    06:00 +26°C° 0 mm 1 m/s 717 mmHg 30%
    07:00 +27°C° 0 mm 1 m/s 718 mmHg 30%
    08:00 +26°C° 0 mm 0 m/s 718 mmHg 30%
    09:00 +32°C° 0 mm 1 m/s 719 mmHg 25%
    10:00 +35°C° 0 mm 1 m/s 719 mmHg 20%
    11:00 +40°C° 0 mm 1 m/s 719 mmHg 16%
    12:00 +41°C° 0 mm 1 m/s 718 mmHg 15%
    13:00 +41°C° 0 mm 1 m/s 717 mmHg 13%
    14:00 +42°C° 0 mm 1 m/s 717 mmHg 12%
    15:00 +41°C° 0 mm 1 m/s 716 mmHg 14%
    16:00 +41°C° 0 mm 1 m/s 716 mmHg 15%
    17:00 +40°C° 0 mm 1 m/s 715 mmHg 17%
    18:00 +36°C° 0 mm 1 m/s 715 mmHg 18%
    19:00 +33°C° 0 mm 1 m/s 716 mmHg 20%
    20:00 +31°C° 0 mm 1 m/s 716 mmHg 21%
    21:00 +30°C° 0 mm 1 m/s 716 mmHg 22%
    22:00 +29°C° 0 mm 1 m/s 716 mmHg 23%
    23:00 +28°C° 0 mm 1 m/s 717 mmHg 25%

    Poimâine, 23 Octombrie, Luni

    Timp Temperatura Precipitaţii Vânt Presiune Umiditate
    00:00 +28°C° 0 mm 1 m/s 716 mmHg 26%
    01:00 +27°C° 0 mm 1 m/s 716 mmHg 28%
    02:00 +27°C° 0 mm 1 m/s 715 mmHg 30%
    03:00 +26°C° 0 mm 1 m/s 715 mmHg 32%
    04:00 +26°C° 0 mm 1 m/s 715 mmHg 34%
    05:00 +26°C° 0 mm 1 m/s 715 mmHg 36%
    06:00 +27°C° 0 mm 1 m/s 716 mmHg 36%
    07:00 +28°C° 0 mm 1 m/s 716 mmHg 36%
    08:00 +30°C° 0 mm 1 m/s 717 mmHg 36%
    09:00 +33°C° 0 mm 1 m/s 717 mmHg 30%
    10:00 +36°C° 0 mm 1 m/s 718 mmHg 25%
    11:00 +40°C° 0 mm 2 m/s 718 mmHg 19%
    12:00 +41°C° 0 mm 2 m/s 717 mmHg 17%
    13:00 +41°C° 0 mm 2 m/s 716 mmHg 16%
    14:00 +42°C° 0 mm 2 m/s 715 mmHg 14%
    15:00 +41°C° 0 mm 2 m/s 715 mmHg 15%
    16:00 +40°C° 0 mm 2 m/s 715 mmHg 17%
    17:00 +39°C° 0 mm 1 m/s 714 mmHg 18%
    18:00 +36°C° 0 mm 1 m/s 715 mmHg 20%
    19:00 +33°C° 0 mm 1 m/s 715 mmHg 21%
    20:00 +31°C° 0 mm 1 m/s 715 mmHg 23%
    21:00 +30°C° 0 mm 1 m/s 716 mmHg 23%
    22:00 +29°C° 0 mm 1 m/s 716 mmHg 23%
    23:00 +29°C° 0 mm 1 m/s 716 mmHg 23%

    24 Octombrie, Marţi

    Timp Temperatura Precipitaţii Vânt Presiune Umiditate
    00:00 +28°C° 0 mm 2 m/s 715 mmHg 25%
    01:00 +27°C° 0 mm 2 m/s 715 mmHg 27%
    02:00 +27°C° 0 mm 2 m/s 715 mmHg 29%
    03:00 +26°C° 0 mm 1 m/s 715 mmHg 33%
    04:00 +26°C° 0 mm 1 m/s 715 mmHg 37%
    05:00 +25°C° 0 mm 1 m/s 715 mmHg 40%
    06:00 +26°C° 0 mm 1 m/s 716 mmHg 41%
    07:00 +28°C° 0 mm 1 m/s 717 mmHg 41%
    08:00 +29°C° 0 mm 1 m/s 717 mmHg 42%
    09:00 +32°C° 0 mm 1 m/s 718 mmHg 38%
    10:00 +34°C° 0 mm 1 m/s 718 mmHg 34%
    11:00 +37°C° 0 mm 1 m/s 718 mmHg 30%
    12:00 +37°C° 0 mm 1 m/s 717 mmHg 29%
    13:00 +39°C° 0 mm 1 m/s 716 mmHg 28%
    14:00 +36°C° 0 mm 0 m/s 715 mmHg 27%
    15:00 +39°C° 0 mm 1 m/s 715 mmHg 27%
    16:00 +39°C° 0 mm 1 m/s 715 mmHg 28%
    17:00 +37°C° 0 mm 1 m/s 715 mmHg 28%
    18:00 +35°C° 0 mm 1 m/s 715 mmHg 33%
    19:00 +33°C° 0 mm 1 m/s 715 mmHg 37%
    20:00 +31°C° 0 mm 1 m/s 716 mmHg 41%
    21:00 +31°C° 0 mm 1 m/s 716 mmHg 44%
    22:00 +30°C° 0 mm 1 m/s 716 mmHg 48%
    23:00 +29°C° 0 mm 2 m/s 716 mmHg 51%

    25 Octombrie, Miercuri

    Timp Temperatura Precipitaţii Vânt Presiune Umiditate
    00:00 +29°C° 0 mm 2 m/s 716 mmHg 56%
    01:00 +28°C° 0 mm 3 m/s 716 mmHg 61%
    02:00 +27°C° 0 mm 3 m/s 716 mmHg 66%
    03:00 +27°C° 0 mm 2 m/s 716 mmHg 69%
    04:00 +26°C° 0 mm 2 m/s 716 mmHg 73%
    05:00 +26°C° 0 mm 1 m/s 716 mmHg 77%
    06:00 +26°C° 0 mm 1 m/s 717 mmHg 73%
    07:00 +27°C° 0 mm 1 m/s 718 mmHg 70%
    08:00 +28°C° 0 mm 1 m/s 718 mmHg 66%
    09:00 +31°C° 0 mm 1 m/s 718 mmHg 58%
    10:00 +33°C° 0 mm 1 m/s 718 mmHg 50%
    11:00 +35°C° 0 mm 1 m/s 719 mmHg 41%
    12:00 +37°C° 0 mm 2 m/s 718 mmHg 37%
    13:00 +38°C° 0 mm 2 m/s 717 mmHg 32%
    14:00 +39°C° 0 mm 2 m/s 716 mmHg 28%
    15:00 +38°C° 0 mm 2 m/s 716 mmHg 28%
    16:00 +38°C° 0 mm 2 m/s 716 mmHg 28%
    17:00 +38°C° 0 mm 2 m/s 716 mmHg 28%
    18:00 +36°C° 0 mm 2 m/s 716 mmHg 29%
    19:00 +34°C° 0 mm 2 m/s 716 mmHg 30%
    20:00 +31°C° 0 mm 2 m/s 717 mmHg 31%
    21:00 +30°C° 0 mm 1 m/s 717 mmHg 30%
    22:00 +29°C° 0 mm 1 m/s 716 mmHg 30%
    23:00 +28°C° 0 mm 1 m/s 716 mmHg 30%

    26 Octombrie, Joi

    Timp Temperatura Precipitaţii Vânt Presiune Umiditate
    00:00 +27°C° 0 mm 1 m/s 716 mmHg 31%
    01:00 +27°C° 0 mm 1 m/s 716 mmHg 33%
    02:00 +26°C° 0 mm 1 m/s 715 mmHg 34%
    03:00 +23°C° 0 mm 0 m/s 716 mmHg 35%
    04:00 +23°C° 0 mm 0 m/s 716 mmHg 36%
    05:00 +22°C° 0 mm 0 m/s 716 mmHg 37%
    06:00 +24°C° 0 mm 0 m/s 717 mmHg 35%
    07:00 +27°C° 0 mm 1 m/s 718 mmHg 33%
    08:00 +29°C° 0 mm 1 m/s 719 mmHg 31%
    09:00 +32°C° 0 mm 2 m/s 718 mmHg 25%
    10:00 +36°C° 0 mm 3 m/s 718 mmHg 19%
    11:00 +38°C° 0 mm 4 m/s 718 mmHg 13%
    12:00 +41°C° 0 mm 4 m/s 717 mmHg 12%
    13:00 +42°C° 0 mm 4 m/s 717 mmHg 11%
    14:00 +43°C° 0 mm 4 m/s 716 mmHg 10%
    15:00 +42°C° 0 mm 3 m/s 715 mmHg 11%
    16:00 +42°C° 0 mm 3 m/s 715 mmHg 12%
    17:00 +40°C° 0 mm 2 m/s 715 mmHg 13%
    18:00 +38°C° 0 mm 2 m/s 715 mmHg 15%
    19:00 +35°C° 0 mm 2 m/s 715 mmHg 16%
    20:00 +31°C° 0 mm 1 m/s 715 mmHg 18%
    21:00 +30°C° 0 mm 1 m/s 715 mmHg 18%
    22:00 +30°C° 0 mm 1 m/s 715 mmHg 19%
    23:00 +29°C° 0 mm 1 m/s 715 mmHg 19%
    Arată mai mult